Culiacan, Mexico

1:11 AM MDT on June 29, 2017 (GMT -0600)
Culiacan International

Weather History for MMCL - January, 2014

Change the Weather History Date:

Sunday, January 26, 2014

  Actual Average Record
Temperature  
Mean Temperature 71 °F -  
Max Temperature 86 °F 80 °F 89 °F (1998)
Min Temperature 56 °F 53 °F 48 °F (2007)
Cooling Degree Days 6    
Growing Degree Days 21 (Base 50)    
Moisture  
Dew Point 61 °F    
Average Humidity 68    
Maximum Humidity 98    
Minimum Humidity 38    
Precipitation  
Precipitation 0.00 in - - ()
Sea Level Pressure  
Sea Level Pressure 29.94 in    
Wind  
Wind Speed 3 mph ()    
Max Wind Speed 12 mph    
Max Gust Speed -    
Visibility 9.3 miles    
Events      
Averages and records for this station are not official NWS values.
T = Trace of Precipitation, MM = Missing Value Source: Averaged Metar Reports

Daily Weather History Graph

Daily Weather History Graph

Search for Another Location

Airport or City:

Trip Planner

Search our weather history database for the weather conditions in past years. The results will help you decide how hot, cold, wet, or windy it might be!

Date:

Astronomy

Jan. 26, 2014 Rise Set
Actual Time 6:54 AM MST 5:50 PM MST
Civil Twilight 6:30 AM MST 6:14 PM MST
Nautical Twilight 6:02 AM MST 6:42 PM MST
Astronomical Twilight 5:35 AM MST 7:09 PM MST
Moon 2:32 AM MST (1/26) 1:45 PM MST (1/26)
Length of Visible Light 11h 44m
Length of Day
10h 56m
Waning Crescent, 23% of the Moon is Illuminated
Jan 26
Waning Crescent
Jan 30
New
Feb 6
First Quarter
Feb 14
Full
Feb 22
Last Quarter

Hourly Weather History & Observations

Time (MST) Temp. Heat Index Dew Point Humidity Pressure Visibility Wind Dir Wind Speed Gust Speed Precip Events Conditions
1:40 AM 62 °F - 61 °F 94% 30.00 in 6 mi SW 2.2 mph - -  
4:40 AM 60 °F - 59 °F 97% 29.99 in 6 mi SW 2.2 mph - -  
6:02 AM 60.8 °F - 55.4 °F 82% 29.95 in 10.0 mi Calm Calm - N/A   Clear
6:42 AM 60.8 °F - 55.4 °F 82% 29.95 in 10.0 mi Calm Calm - N/A   Clear
7:40 AM 61 °F - 61 °F 98% 30.01 in 10 mi SW 2.2 mph - -   Haze
7:41 AM 62.6 °F - 57.2 °F 82% 29.94 in 10.0 mi Calm Calm - N/A   Clear
8:41 AM 68.0 °F - 59.0 °F 73% 29.98 in 10.0 mi Calm Calm - N/A   Clear
9:47 AM 71.6 °F - 60.8 °F 69% 29.98 in 10.0 mi Calm Calm - N/A   Clear
10:40 AM 77.0 °F - 60.8 °F 57% 29.98 in 10.0 mi Calm Calm - N/A   Clear
10:50 AM 78 °F - 62 °F 49% 29.99 in 10 mi Calm Calm - -   Haze
11:50 AM 82.4 °F 83.9 °F 64.4 °F 54% 29.97 in 10.0 mi WSW 9.2 mph - N/A   Partly Cloudy
12:40 PM 86.0 °F 85.4 °F 59.0 °F 40% 29.94 in 10.0 mi WSW 6.9 mph - N/A   Partly Cloudy
1:42 PM 86.0 °F 85.4 °F 59.0 °F 40% 29.88 in 10.0 mi WSW 6.9 mph - N/A   Scattered Clouds
1:50 PM - - 61 °F % 29.92 in 10 mi NNE 219.3 mph - -   Haze
2:40 PM 89.6 °F 89.5 °F 60.8 °F 38% 29.88 in 10.0 mi WSW 9.2 mph - N/A   Scattered Clouds
3:40 PM 87.8 °F 87.6 °F 60.8 °F 40% 29.86 in 10.0 mi WNW 11.5 mph - N/A   Scattered Clouds
4:41 PM 86.0 °F 85.4 °F 59.0 °F 40% 29.85 in 10.0 mi WNW 11.5 mph - N/A   Mostly Cloudy
4:50 PM 82 °F - 65 °F 47% 29.86 in 10 mi West 4.5 mph - -   Haze
5:40 PM 77.0 °F - 64.4 °F 65% 29.87 in 10.0 mi WNW 9.2 mph - N/A   Mostly Cloudy
7:40 PM 73.4 °F - 66.2 °F 78% 29.89 in 10.0 mi North 5.8 mph - N/A   Mostly Cloudy
7:50 PM 68 °F - 64 °F 82% 29.96 in 6 mi Calm Calm - -  
8:41 PM 69.8 °F - 64.4 °F 83% 29.91 in 10.0 mi Calm Calm - N/A   Mostly Cloudy
9:44 PM 69.8 °F - 64.4 °F 83% 29.92 in 10.0 mi Calm Calm - N/A   Mostly Cloudy
10:55 PM 63 °F - 62 °F 96% 29.99 in 6 mi Calm Calm - -